TIME,�g��[���C[MJ/h],����[MJ/h],�Ɩ�[MJ/h],�~�[[MJ/h],�①��[MJ/h],��y���[MJ/h],�Ǝ��q��[MJ/h],���̑��s��[MJ/h],�u�����`������[MJ/h]
2003/9/1 0:00,0.108,0,0.0432,0.02736,0.4896,0.2376,0.03312,0,0.02448
2003/9/1 0:15,0.108,0,0.0432,0.02448,0.56736,0.2376,0,0,0.0432
2003/9/1 0:30,0.10944,0,0.0432,0.03456,0.54576,0.2376,0.03312,0,0.03888
2003/9/1 0:45,0.108,0,0.0432,0.02304,0.53568,0.2376,0,0,0.04176
2003/9/1 1:00,0.108,0,0.0432,0.02736,0.52416,0.2376,0,0,0.0432
2003/9/1 1:15,0.1008,0,0.0504,0.02592,0.51552,0.2376,0.03456,0,0.03888
2003/9/1 1:30,0.108,0,0.0432,0.02448,0.50976,0.2376,0,0,0.0432
2003/9/1 1:45,0.1008,0,0.0432,0.0288,0.49392,0.2376,0.03024,0,0.04032
2003/9/1 2:00,0.108,0,0.0432,0.0288,0.49536,0.2376,0,0,0.0432
2003/9/1 2:15,0.108,0,0.0432,0.02304,0.49104,0.2376,0,0,0.0432
2003/9/1 2:30,0.108,0,0.04608,0.0288,0.47952,0.2376,0.03168,0,0.03888
2003/9/1 2:45,1.06128,0,0.04752,0.03456,0.4752,0.24624,0,0,0.05472
2003/9/1 3:00,0.44784,0,0.05328,0.0288,0.47232,0.2376,0.036,0,0.07056
2003/9/1 3:15,0.53856,0,0.0432,0.02448,0.468,0.2376,0,0,0.0792
2003/9/1 3:30,0.50256,0,0.06912,0.02304,0.46944,0.2376,0,0,0.08352
2003/9/1 3:45,0.37728,0,0.14832,0.02304,0.46944,0.2376,0.03312,0,0.06912
2003/9/1 4:00,0.41184,0,0.1512,0.02448,0.14832,0.23904,0,0,0.09936
2003/9/1 4:15,0.40032,0,0.1512,0.02448,0.10224,0.2376,0.036,0,0.108
2003/9/1 4:30,0.3888,0,0.1512,0.03024,0.47808,0.2376,0,0,0.072
2003/9/1 4:45,0.3384,0,0.1512,0.03168,0.46368,0.2376,0,0,0.07344
2003/9/1 5:00,0.33552,0,0.15552,0.02448,0.47088,0.2376,0.03456,0,0.07056
2003/9/1 5:15,0.33408,0,0.1512,0.02736,0.46656,0.2376,0,0,0.07344
2003/9/1 5:30,0.35712,0,0.1512,0.02448,0.27072,0.2376,0,0,0.08784
2003/9/1 5:45,0.36,0,0.04752,0.0216,0,0.2376,0.03024,0,0.12816
2003/9/1 6:00,0.10944,0,0.04176,0.30672,0.44208,0.23472,0.072,0,0.03456
2003/9/1 6:15,0.10944,0,0.19152,0.09072,0.50976,0.216,0.20304,0,0.00576
2003/9/1 6:30,0.108,0,0.34704,0.03456,0.48528,0.216,0.29088,0,0.01728
2003/9/1 6:45,0.108,0,0.5688,0.02736,0.47808,0.21888,0.13824,0,0.01152
2003/9/1 7:00,0.108,0,1.05984,1.56816,0.5112,0.22032,0,0,-0.10656
2003/9/1 7:15,0.108,0,1.03248,0.03168,0.47088,0.216,0,0,-0.02448
2003/9/1 7:30,0.108,0,0.93024,0.02448,0.49968,0.21456,0.03456,0,-0.05184
2003/9/1 7:45,0.108,0,0.85536,0.0288,0.4824,0.216,0.15408,0,-0.06048
2003/9/1 8:00,0.108,0,0.47088,0.0288,0.35856,0.21456,0,0,0.01008
2003/9/1 8:15,0.108,0,0.08496,0.0216,0,0.21456,0.03456,0,0.0792
2003/9/1 8:30,0.108,0,0.04464,0.02448,0.39888,0.21312,0,0,0.05328
2003/9/1 8:45,0.108,0,0.04464,0.0216,0.4968,0.216,0.03456,0,0.03888
2003/9/1 9:00,0.108,0,0.0432,0.02448,0.4896,0.21456,0,0,0.0432
2003/9/1 9:15,0.10368,0,0.0432,0.0288,0.4824,0.21456,0.00432,0,0.04896
2003/9/1 9:30,0.108,0,0.05472,0.03312,0.4824,0.21456,0.02448,0,0.04032
2003/9/1 9:45,0.108,0,0.04608,0.03168,0.35856,0.21456,0.03456,0,0.06048
2003/9/1 10:00,0.108,0,0.0432,0.0216,0,0.21456,0,0,0.1008
2003/9/1 10:15,0.108,0,0.0432,0.02448,0.40176,0.21744,0,0,0.05616
2003/9/1 10:30,0.10656,0,0.05472,0.0288,0.4896,0.216,0.03888,0,0.03024
2003/9/1 10:45,0.108,0,0.0432,0.02304,0.49248,0.21456,0,0,0.04608
2003/9/1 11:00,0.108,0,0.05184,0.02736,0.48096,0.21456,0.03024,0,0.03744
2003/9/1 11:15,0.11952,0,0.14976,2.1744,0.05184,0.21456,0,0,0.0648
2003/9/1 11:30,0.108,0,0.08496,1.45728,0.24192,0.216,0,0,0.06768
2003/9/1 11:45,0.1008,0,0.41616,0.21168,0.49392,0.22464,0.036,0,-0.01584
2003/9/1 12:00,0.108,0,0.504,0.08496,0.49392,0.37584,0,0,-0.0288
2003/9/1 12:15,0.10944,0,0.04464,0.52272,0.51264,0.42912,0.03456,0,-0.06768
2003/9/1 12:30,0.108,0,0.04608,0.07776,0.49104,0.43056,0,0,0.0216
2003/9/1 12:45,0.108,0,0.04608,0.08352,0.4824,0.41184,0,0,0.02448
2003/9/1 13:00,0.10656,0,0.05184,0.0792,0.35712,0.38304,0.03024,0,0.03168
2003/9/1 13:15,0.108,0,0.11664,0.29808,0.14688,0.32256,0,0,0.02304
2003/9/1 13:30,0.108,0,0.0504,0.08064,0.5184,0.43056,0.036,0,0.01296
2003/9/1 13:45,0.108,0,0.04464,0.08208,0.51408,0.42624,0,0,0.01872
2003/9/1 14:00,0.108,0,0.2808,0.08064,0.504,0.41328,0,0,0.0144
2003/9/1 14:15,0.1224,0,0.46656,0.08496,0.50256,0.41904,0.03456,0,0
2003/9/1 14:30,0.13248,0,0.46368,0.08208,0.51552,0.4536,0,0,-0.01152
2003/9/1 14:45,0.11664,0,0.4752,0.08064,0.56448,0.43776,0,0,-0.03744
2003/9/1 15:00,0.108,0,0.46368,0.07632,0.5688,0.432,0.03168,0,-0.03312
2003/9/1 15:15,0.108,0,0.44784,0.08496,0.49824,0.31968,0,0,0.03168
2003/9/1 15:30,0.1008,0,0.60048,0.09792,0.57744,0.21456,0.03456,0,0.04896
2003/9/1 15:45,0.108,0,0.96912,0.08928,0.55872,0.216,0,0,0.01008
2003/9/1 16:00,0.108,0,0.98928,0.09792,0.54576,0.21456,0,0,-0.00864
2003/9/1 16:15,0.108,0,1.13616,0.0936,0.53712,0.21456,0.03744,0,-0.0072
2003/9/1 16:30,0.108,0,1.06848,0.09648,0.52992,0.21312,0.03312,0,-0.00432
2003/9/1 16:45,0.108,0,1.0944,0.09504,0.52704,0.21456,0,0,0.00144
2003/9/1 17:00,0.108,0,0.5688,0.5256,0.51984,0.26928,0,0,-0.04464
2003/9/1 17:15,0.108,0,0.57744,0.15552,0.51696,0.21456,0.03312,0,0.01296
2003/9/1 17:30,0.108,0,0.936,0.09936,0.52992,0.216,0,0,-0.06192
2003/9/1 17:45,0.108,0,0.86832,0.1008,0.52416,0.21456,0.03168,0,0.01152
2003/9/1 18:00,0.108,0,0.93744,0.06768,0.51408,0.27072,0.04608,0,-0.036
2003/9/1 18:15,0.108,0,0.83664,0.072,0.49968,0.45072,0,0,-0.04176
2003/9/1 18:30,0.108,0,0.8352,0.0648,0.49248,0.45216,0.03312,0,-0.04608
2003/9/1 18:45,0.108,0,0.9648,0.07056,0.48384,0.44064,0.03888,0,-0.06048
2003/9/1 19:00,0.23472,0,0.81648,0.036,0.48384,0.46944,0,0,-0.04176
2003/9/1 19:15,0.27216,0,1.18368,0.02448,0.49104,0.41472,0.036,0,-0.10944
2003/9/1 19:30,0.2808,0,1.79136,0.02736,0.4824,0.21744,0,0,-0.15408
2003/9/1 19:45,0.2808,0,1.70352,0.02304,0.48816,0.21456,0.03024,0,-0.13824
2003/9/1 20:00,0.2808,0,1.656,0.02736,0.46512,0.21312,0,0,-0.13392
2003/9/1 20:15,0.2232,0,0.8352,0.02736,0.46656,0.21456,0,0,-0.03888
2003/9/1 20:30,0.108,0,0.8064,0.02304,0.46512,0.21312,0.03312,0,-0.07632
2003/9/1 20:45,0.108,0,1.93104,0.02592,0.4608,0.216,0,0,-0.19008
2003/9/1 21:00,0.108,0,2.36016,0.02592,0.46368,0.21312,0.7416,0,-0.34704
2003/9/1 21:15,0.108,0,1.30464,0.0288,0.46224,0.2736,0,0,-0.10368
2003/9/1 21:30,0.10512,0,1.11024,0.02304,0.11664,0.324,0.40752,0,-0.08208
2003/9/1 21:45,0.108,0,1.51488,0.02448,0.14976,0.324,0,0,-0.1008
2003/9/1 22:00,0.108,0,1.84896,0.02736,0.48384,0.324,0,0,-0.17568
2003/9/1 22:15,0.10512,0,1.85904,0.02736,0.46944,0.324,0.03744,0,-0.17712
2003/9/1 22:30,0.23472,0,1.83168,0.38304,0.4752,0.33264,0,0,-0.216
2003/9/1 22:45,0.2808,0,2.55024,0.26208,0.49392,0.32832,0,0,-0.28512
2003/9/1 23:00,1.0008,0,2.2824,0.02736,0.47232,0.36864,0.05472,0,-0.28368
2003/9/1 23:15,1.9152,0,0.84816,0.0288,0.47952,0.21456,0.29088,0,-0.22464
2003/9/1 23:30,1.91376,0,0.62208,0.0288,0.1656,0.21456,0.03744,0,-0.12816
2003/9/1 23:45,1.4688,0,0.5472,0.02448,0.10944,0.2448,0,0,-0.108
2003/9/2 0:00,1.11168,0,0.15408,0.0288,0.4968,0.28944,0,0,-0.10512
2003/9/2 0:15,0.9504,0,0.14976,0.02304,0.49248,0.23184,0.0288,0,-0.09072
2003/9/2 0:30,0.87696,0,0.14256,0.02736,0.48816,0.21744,0,0,-0.06768
2003/9/2 0:45,0.9576,0,0.1512,0.02448,0.48672,0.21456,0.03456,0,-0.08496
2003/9/2 1:00,0.86112,0,0.14112,0.02304,0.15984,0.21456,0,0,-0.03312
2003/9/2 1:15,0.77472,0,0.13968,0.02304,0.13104,0.216,0,0,-0.02592
2003/9/2 1:30,0.85824,0,0.13536,0.02304,0.49536,0.21312,0.036,0,-0.08208
2003/9/2 1:45,0.73152,0,0.1368,0.0288,0.47952,0.216,0,0,-0.06768
2003/9/2 2:00,0.66528,0,0.13824,0.0288,0.48096,0.21456,0,0,-0.04464
2003/9/2 2:15,0.74448,0,0.13968,0.03312,0.47808,0.21456,0.03456,0,-0.06624
2003/9/2 2:30,0.61488,0,0.1656,0.02448,0.18864,0.216,0,0,-0.02448
2003/9/2 2:45,0.612,0,0.24192,0.02448,0.10944,0.21456,0.03024,0,-0.03744
2003/9/2 3:00,0.53712,0,0.14832,0.02448,0.49392,0.21312,0,0,-0.04752
2003/9/2 3:15,0.68112,0,0.14688,0.02736,0.4824,0.21456,0.00144,0,-0.06048
2003/9/2 3:30,0.4824,0,0.16272,0.03024,0.47952,0.21456,0.036,0,-0.05904
2003/9/2 3:45,0.4752,0,0.1512,0.02448,0.17856,0.216,0,0,-0.0072
2003/9/2 4:00,0.46368,0,0.1512,0.0216,0.108,0.21744,0.03024,0,0.01008
2003/9/2 4:15,0.55008,0,0.14976,0.02304,0.49536,0.21456,0,0,-0.04464
2003/9/2 4:30,0.31392,0,0.07488,0.03024,0.47952,0.216,0,0,0.03024
2003/9/2 4:45,0.1944,0,0.05328,0.03168,0.47664,0.216,0.03744,0,0.0288
2003/9/2 5:00,0.1944,0,0.0432,0.02304,0.14832,0.21744,0,0,0.07344
2003/9/2 5:15,0.19152,0,0.108,1.332,0.12816,0.216,0.00288,0,0.01584
2003/9/2 5:30,0.1944,0,0.07344,0.79632,0.49248,0.21312,0.03312,0,0.02736
2003/9/2 5:45,0.1944,0,0.05472,0.17712,0.4752,0.216,0,0,0.03024
2003/9/2 6:00,0.1872,0,0.26496,0.0792,0.5616,0.21456,0.16272,0,-0.02592
2003/9/2 6:15,0.144,0,0.35856,2.34576,0.60048,0.21456,0.49104,0,-0.22032
2003/9/2 6:30,0.108,0,0.40752,0.96768,0.51696,0.216,0.30384,0,-0.13968
2003/9/2 6:45,0.108,0,0.47088,0.02448,0.6264,0.21744,0.16272,0,-0.00144
2003/9/2 7:00,0.15408,0,0.62784,0.4392,0.59904,0.22032,0,0,0.01008
2003/9/2 7:15,0.13104,0,0.58176,0.31392,0.58464,0.21456,0.03312,0,0.02592
2003/9/2 7:30,0.17712,0,0.44784,0.0648,0.56448,0.216,0,0,0.02304
2003/9/2 7:45,0.10368,0,0.40608,0.42624,0.56592,0.216,0.04032,0,-0.0288
2003/9/2 8:00,0.108,0,0.0432,0.18288,0.55872,0.21456,0,0,0.02448
2003/9/2 8:15,0.108,0,0.13824,0.03024,0.55296,0.21456,0.14832,0,0.02304
2003/9/2 8:30,0.10368,0,0.0504,0.03744,0.54576,0.21456,0.03312,0,0.03888
2003/9/2 8:45,0.108,0,0.0432,0.03312,0.54,0.21456,0,0,0.0432
2003/9/2 9:00,0.108,0,0.0432,0.03312,0.53568,0.216,0.036,0,0.03888
2003/9/2 9:15,0.108,0,0.0432,0.0216,0.53856,0.21456,0,0,0.0432
2003/9/2 9:30,0.108,0,0.0432,0.02304,0.53712,0.21456,0,0,0.0432
2003/9/2 9:45,0.10512,0,0.05472,0.02448,0.53424,0.21312,0.04032,0,0.02592
2003/9/2 10:00,0.108,0,0.0432,0.02448,0.53136,0.216,0,0,0.0432
2003/9/2 10:15,0.108,0,0.0432,0.02448,0.52704,0.21456,0,0,0.04032
2003/9/2 10:30,0.10368,0,0.0432,0.03168,0.51552,0.21456,0.0288,0,0.04032
2003/9/2 10:45,0.108,0,0.0432,0.02592,0.51552,0.216,0,0,0.0432
2003/9/2 11:00,0.10656,0,0.0432,0.02448,0.5112,0.21456,0.036,0,0.03888
2003/9/2 11:15,0.108,0,0.0432,0.02304,0.51408,0.21456,0,0,0.0432
2003/9/2 11:30,0.10656,0,0.0432,0.0216,0.51408,0.21456,0.02592,0,0.03168
2003/9/2 11:45,0.108,0,0.04752,0.02304,0.50832,0.21744,0.00864,0,0.04176
2003/9/2 12:00,0.108,0,0.0432,0.03024,0.49968,0.21888,0,0,0.0432
2003/9/2 12:15,0.108,0,0.0432,0.02736,0.50544,0.21456,0.03456,0,0.03888
2003/9/2 12:30,0.108,0,0.0432,0.03312,0.49248,0.216,0,0,0.0432
2003/9/2 12:45,0.108,0,0.04176,0.02736,0.48816,0.4032,0,0,0.02448
2003/9/2 13:00,0.1008,0,0.30672,0.0288,0.49104,0.32976,0.03168,0,-0.0072
2003/9/2 13:15,0.108,0,0.19008,0.02592,0.50832,0.21456,0.18288,0,0
2003/9/2 13:30,0.10512,0,0.05328,0.02736,0.49968,0.21456,0.03744,0,0.03888
2003/9/2 13:45,0.108,0,0.0432,0.02736,0.4968,0.21456,0,0,0.04608
2003/9/2 14:00,0.108,0,0.2592,0.02304,0.50544,0.21456,0,0,0.01008
2003/9/2 14:15,3.60576,0,0.36144,0.0288,0.48672,0.21744,0.03168,0,-0.108
2003/9/2 14:30,3.78432,0,0.3672,0.02592,0.48816,0.216,0,0,-0.09504
2003/9/2 14:45,3.72096,0,0.36576,0.02304,0.04464,0.29088,0,0,-0.0576
2003/9/2 15:00,3.69216,0,0.36576,0.02304,0.2376,0.432,0.03312,0,-0.09936
2003/9/2 15:15,3.58848,0,0.37152,0.03024,0.49248,0.396,0,0,-0.108
2003/9/2 15:30,3.58848,0,0.45792,0.02592,0.48528,0.21456,0,0,-0.08496
2003/9/2 15:45,3.30336,0,0.4536,0.0288,0.48096,0.21312,0.036,0,-0.08928
2003/9/2 16:00,3.28896,0,0.4536,0.03456,0.47376,0.21456,0,0,-0.0864
2003/9/2 16:15,3.28896,0,0.4536,0.03024,0.2376,0.216,0,0,-0.0576
2003/9/2 16:30,3.27024,0,0.4536,0.0216,0.03456,0.21456,0.03744,0,-0.036
2003/9/2 16:45,3.25872,0,0.4536,0.02592,0.49248,0.21456,0,0,-0.08352
2003/9/2 17:00,3.24144,0,0.45072,0.03024,0.48096,0.216,0,0,-0.08208
2003/9/2 17:15,2.96208,0,0.54864,0.03312,0.4896,0.216,0.036,0,-0.0792
2003/9/2 17:30,2.86704,0,1.11312,0.03024,0.48672,0.21744,0,0,-0.15408
2003/9/2 17:45,2.89152,0,1.23696,0.02736,0.48384,0.2304,0.3672,0,-0.25056
2003/9/2 18:00,3.06144,0,1.14048,0.03024,0.47952,0.28368,0,0,-0.22176
2003/9/2 18:15,2.83536,0,1.01952,0.44352,0.39024,0.3456,0.03312,0,-0.12384
2003/9/2 18:30,2.66112,0,1.41552,1.09728,0,0.3456,0,0,-0.1296
2003/9/2 18:45,2.86992,0,1.55808,1.39968,0.37008,0.3456,0.03312,0,-0.14832
2003/9/2 19:00,2.8584,0,2.07648,0.22464,0.49968,0.34704,0,0,-0.18144
2003/9/2 19:15,2.70432,0,2.33856,0.51696,0.51408,0.33408,0,0,-0.3384
2003/9/2 19:30,2.56464,0,1.73808,0.0216,0.49824,0.3312,0.03168,0,-0.23904
2003/9/2 19:45,2.60352,0,1.93824,0.03024,0.49248,0.64368,0,0,-0.32112
2003/9/2 20:00,2.56032,0,2.3832,0.14544,0.48096,0.73152,0,0,-0.33264
2003/9/2 20:15,2.49264,0,1.72944,0.3384,0.54,0.70128,0.03312,0,-0.29088
2003/9/2 20:30,2.48976,0,2.03328,0.35136,0.54144,0.69552,0,0,-0.34416
2003/9/2 20:45,2.45088,0,1.8792,0.08352,0.45504,0.65808,0.24048,0,-0.29664
2003/9/2 21:00,2.7144,0,2.14848,0.02592,0.57456,0.61632,0,0,-0.288
2003/9/2 21:15,2.736,0,2.30256,0.03024,0.54288,0.4536,0,0,-0.25056
2003/9/2 21:30,2.5488,0,2.30544,0.0216,0.54,0.46944,1.07568,0,-0.38304
2003/9/2 21:45,2.73024,0,1.66752,0.03168,0.51408,0.5616,0,0,-0.17136
2003/9/2 22:00,2.43648,0,1.40976,0.02736,0.5112,0.52848,0.036,0,-0.1584
2003/9/2 22:15,1.91664,0,1.20096,0.0288,0.49104,0.48816,0,0,-0.0648
2003/9/2 22:30,0.63504,0,1.07136,0.02448,0.48672,0.14544,0,0,-0.0216
2003/9/2 22:45,0.108,0,0.5976,0.03456,0.47664,0.1296,0.03312,0,0.01152
2003/9/2 23:00,0.108,0,0.54576,0.02592,0.48528,0.1296,0,0,0.01008
2003/9/2 23:15,0.14976,0,0.53136,0.03024,0.47232,0.1296,0.03312,0,-0.00144
2003/9/2 23:30,0.216,0,0.53568,0.02448,0.47088,0.1296,0,0,-0.00432
2003/9/2 23:45,0.16272,0,0.53712,0.0216,0.0504,0.1296,0,0,0.04032
2003/9/3 0:00,0.21456,0,0.54,0.02448,0.2304,0.1296,0.036,0,0.0144
2003/9/3 0:15,0.19728,0,0.54432,0.0216,0.49248,0.1296,0,0,-0.00576
2003/9/3 0:30,0.108,0,0.50112,0.02736,0.48528,0.1296,0,0,0.00864
2003/9/3 0:45,0.108,0,0.38016,0.0288,0.48384,0.1296,0.03456,0,-0.00864
2003/9/3 1:00,0.108,0,0.36864,0.02448,0.47376,0.1296,0,0,-0.00144
2003/9/3 1:15,0.108,0,0.19296,0.02304,0.22752,0.1296,0.03456,0,0.04176
2003/9/3 1:30,0.108,0,0.13968,0.0216,0.06336,0.1296,0,0,0.06336
2003/9/3 1:45,0.108,0,0.14544,0.02448,0.49104,0.1296,0,0,0.0216
2003/9/3 2:00,0.10368,0,0.14544,0.02736,0.47664,0.1296,0.03888,0,0.01872
2003/9/3 2:15,0.108,0,0.14256,0.036,0.47376,0.1296,0,0,0.0216
2003/9/3 2:30,0.108,0,0.144,0.02736,0.20304,0.1296,0,0,0.04464
2003/9/3 2:45,0.108,0,0.14832,0.02304,0.09072,0.1296,0.03312,0,0.05184
2003/9/3 3:00,0.108,0,0.14544,0.02304,0.49104,0.1296,0,0,0.0216
2003/9/3 3:15,0.108,0,0.14256,0.03024,0.4752,0.1296,0,0,0.0216
2003/9/3 3:30,0.10368,0,0.14256,0.03312,0.47232,0.1296,0.03456,0,0.01872
2003/9/3 3:45,0.108,0,0.14112,0.02304,0.13392,0.1296,0,0,0.05616
2003/9/3 4:00,0.108,0,0.144,0.02448,0.144,0.1296,0,0,0.0504
2003/9/3 4:15,0.108,0,0.14688,0.02736,0.48816,0.1296,0.03024,0,0.01584
2003/9/3 4:30,0.108,0,0.14256,0.03168,0.47232,0.1296,0,0,0.0216
2003/9/3 4:45,0.108,0,0.144,0.03312,0.47376,0.1296,0,0,0.02592
2003/9/3 5:00,0.108,0,0.144,0.02448,0.0648,0.1296,0.03456,0,0.05616
2003/9/3 5:15,0.11952,0,0.17568,1.49904,0.21024,0.1296,0,0,0.01296
2003/9/3 5:30,0.10944,0,0.1368,0.77904,0.4896,0.1296,0.03456,0,0.0648
2003/9/3 5:45,0.108,0,0.1512,0.17136,0.47664,0.1296,0,0,0.02592
2003/9/3 6:00,0.1656,0,0.37584,0.08496,0.47952,0.1296,0,0,0.0144
2003/9/3 6:15,0.2808,0,0.41616,0.4464,0.51696,0.1296,0.09648,0,-0.00144
2003/9/3 6:30,0.2808,0,0.43776,0.04752,0.49968,0.1296,0.24624,0,0.01152
2003/9/3 6:45,0.2808,0,0.62208,1.47888,0.5472,0.13248,0.3312,0,-0.09936
2003/9/3 7:00,0.2808,0,0.9432,0.58896,0.51264,0.13536,0.07344,0,0.00144
2003/9/3 7:15,0.2808,0,1.22688,0.03024,0.51264,0.1296,0,0,-0.03312
2003/9/3 7:30,0.2808,0,0.8856,0.0288,0.50688,0.1296,0,0,0.01296
2003/9/3 7:45,0.17136,0,0.58896,0.02736,0.49968,0.1512,0.03744,0,0.00576
2003/9/3 8:00,0.108,0,0.38016,0.02736,0.4896,0.13248,0,0,0.04752
2003/9/3 8:15,0.108,0,0.11808,0.0288,0.48384,0.12672,0.08784,0,0.04176
2003/9/3 8:30,0.1008,0,0.05328,0.02736,0.48528,0.1296,0.036,0,0.05616
2003/9/3 8:45,0.108,0,0.0432,0.03456,0.47088,0.1296,0,0,0.0648
2003/9/3 9:00,0.10656,0,0.0432,0.02736,0.46944,0.12672,0.036,0,0.06048
2003/9/3 9:15,0.108,0,0.0432,0.03456,0.47088,0.1296,0,0,0.0648
2003/9/3 9:30,0.108,0,0.0432,0.03024,0.35856,0.12816,0,0,0.07776
2003/9/3 9:45,0.1008,0,0.05328,0.0216,0,0.12672,0.03456,0,0.10224
2003/9/3 10:00,0.108,0,0.0432,0.02448,0.37728,0.12816,0,0,0.07632
2003/9/3 10:15,0.108,0,0.04896,0.02736,0.4896,0.12816,0.03024,0,0.06048
2003/9/3 10:30,0.108,0,0.0432,0.02448,0.48816,0.12672,0,0,0.0648
2003/9/3 10:45,0.108,0,0.0432,0.02736,0.47952,0.12816,0,0,0.0648
2003/9/3 11:00,0.1008,0,0.0432,0.0288,0.47952,0.12816,0.03312,0,0.06048
2003/9/3 11:15,0.108,0,0.0432,0.03312,0.4752,0.12816,0,0,0.06336
2003/9/3 11:30,0.10656,0,0.0432,0.02592,0.5616,0.12816,0.03744,0,0.01728
2003/9/3 11:45,0.108,0,0.0432,0.02304,0.5616,0.13104,0,0,0.02016
2003/9/3 12:00,0.108,0,0.0432,0.02736,0.49248,0.13248,0,0,0.03744
2003/9/3 12:15,0.108,0,0.04608,0.0288,0.576,0.1296,0.03312,0,0.04176
2003/9/3 12:30,0.108,0,0.0432,0.03168,0.55008,0.12816,0,0,0.05616
2003/9/3 12:45,0.108,0,0.04176,0.03312,0.55008,0.30096,0,0,0.02592
2003/9/3 13:00,0.10656,0,0.10944,0.45216,0.55872,0.252,0.03744,0,-0.03744
2003/9/3 13:15,0.108,0,0.0432,0.02736,0.55152,0.29952,0,0,0.03456
2003/9/3 13:30,0.612,0,0.04608,0.02304,0.53712,0.27072,0,0,0.0072
2003/9/3 13:45,3.69792,0,0.04464,0.0288,0.51408,0.12816,0.03456,0,-0.072
2003/9/3 14:00,3.61008,0,0.0432,0.02592,0.50256,0.12816,0,0,-0.05472
2003/9/3 14:15,3.55968,0,0.20016,0.29088,0.49392,0.12672,0,0,-0.10656
2003/9/3 14:30,3.76704,0,0.41472,0.25776,0.49104,0.12816,0.03456,0,-0.1152
2003/9/3 14:45,3.75696,0,0.46656,0.0288,0.4752,0.14112,0,0,-0.08064
2003/9/3 15:00,3.67632,0,0.64656,0.0288,0.46944,0.35424,0,0,-0.1512
2003/9/3 15:15,3.40992,0,0.67824,0.0288,0.46944,0.24048,0.036,0,-0.1368
2003/9/3 15:30,3.39264,0,0.72144,0.03168,0.45792,0.12816,0,0,-0.12384
2003/9/3 15:45,3.40992,0,0.71712,0.02736,0.46512,0.12672,0,0,-0.12096
2003/9/3 16:00,3.41424,0,0.72,0.0288,0.40752,0.12816,0.03456,0,-0.11952
2003/9/3 16:15,3.37824,0,0.71568,0.0216,0,0.12816,0,0,-0.08064
2003/9/3 16:30,3.36816,0,0.72288,0.02304,0.2664,0.12816,0,0,-0.108
2003/9/3 16:45,3.34656,0,0.71424,0.34848,0.49824,0.1296,0.03312,0,-0.18288
2003/9/3 17:00,3.3408,0,0.684,0.02736,0.50256,0.12816,0,0,-0.13392
2003/9/3 17:15,3.3192,0,0.32112,0.0288,0.4896,0.12816,0,0,-0.09936
2003/9/3 17:30,3.28608,0,0.31968,0.0288,0.48816,0.45072,0.03456,0,-0.14976
2003/9/3 17:45,3.28032,0,0.37728,0.02592,0.48384,0.45072,0,0,-0.14544
2003/9/3 18:00,3.26736,0,0.324,0.0288,0.47952,0.45216,0,0,-0.14832
2003/9/3 18:15,3.22416,0,0.72288,0.02448,0.47088,0.44928,0.03168,0,-0.15984
2003/9/3 18:30,3.23136,0,0.84096,0.17136,0.46512,0.3888,0.00288,0,-0.13104
2003/9/3 18:45,3.34512,0,1.13184,0.45792,0.468,0.21312,0.03024,0,-0.15264
2003/9/3 19:00,3.38544,0,1.71792,1.56816,0.4752,0.21456,0,0,-0.27936
2003/9/3 19:15,3.38112,0,1.71216,0.68688,0.46368,0.21312,0.036,0,-0.2232
2003/9/3 19:30,3.20832,0,1.36224,0.08928,0.47376,0.21456,0,0,-0.21456
2003/9/3 19:45,3.20256,0,1.07856,0.07776,0.46656,0.21456,0,0,-0.13968
2003/9/3 20:00,3.18672,0,1.07568,0.07488,0.4536,0.21456,0.03312,0,-0.13392
2003/9/3 20:15,2.96928,0,1.35648,0.07344,0.45072,0.21456,0,0,-0.17424
2003/9/3 20:30,2.38176,0,1.17072,0.07776,0.27792,0.21456,0,0,-0.16128
2003/9/3 20:45,2.37024,0,2.11968,0.18288,0.03024,0.21456,0.03312,0,-0.2952
2003/9/3 21:00,2.39328,0,2.46528,0.0288,0.41184,0.2376,0,0,-0.32544
2003/9/3 21:15,2.39328,0,2.42784,0.0288,0.48096,0.39744,0,0,-0.34416
2003/9/3 21:30,2.39328,0,2.48112,0.02736,0.468,0.41184,0.63792,0,-0.40896
2003/9/3 21:45,2.3616,0,1.61136,0.0288,0.46224,0.41472,0.46656,0,-0.34128
2003/9/3 22:00,2.37024,0,1.29456,0.02592,0.4608,0.4752,0.23472,0,-0.28512
2003/9/3 22:15,2.37744,0,1.17504,0.02304,0.24624,0.35856,0,0,-0.18
2003/9/3 22:30,2.38176,0,1.20816,0.0216,0,0.33264,0,0,-0.14112
2003/9/3 22:45,2.22912,0,1.26288,0.02304,0.4464,0.48096,0.03024,0,-0.19584
2003/9/3 23:00,0.10944,0,1.04112,0.0288,0.47952,0.19728,0,0,-0.0576
2003/9/3 23:15,0.1008,0,0.42624,0.03312,0.48096,0.13968,0.03456,0,0.02736
2003/9/3 23:30,0.108,0,0.40608,0.02592,0.46656,0.1296,0,0,0.0432
2003/9/3 23:45,0.108,0,0.4104,0.0288,0.47088,0.1296,0,0,0.0432
2003/9/4 0:00,0.10656,0,0.4032,0.0288,0.32976,0.1296,0.036,0,0.05184
2003/9/4 0:15,0.108,0,0.39168,0.0216,0,0.1296,0,0,0.0864
2003/9/4 0:30,0.108,0,0.40032,0.0216,0.39744,0.1296,0.03024,0,0.04464
2003/9/4 0:45,0.108,0,0.39888,0.02736,0.46944,0.1296,0,0,0.04608
2003/9/4 1:00,0.108,0,0.40464,0.02448,0.46944,0.1296,0,0,0.0432
2003/9/4 1:15,0.1008,0,0.41472,0.02736,0.46512,0.1296,0.03168,0,0.03744
2003/9/4 1:30,0.108,0,0.4104,0.02304,0.03168,0.1296,0,0,0.08784
2003/9/4 1:45,0.108,0,0.39312,0.02304,0.22464,0.1296,0.03456,0,0.0648
2003/9/4 2:00,0.108,0,0.396,0.0216,0.4752,0.1296,0,0,0.04608
2003/9/4 2:15,0.10224,0,0.40752,0.02736,0.46224,0.1296,0.02448,0,0.04032
2003/9/4 2:30,0.108,0,0.24768,0.03168,0.51984,0.1296,0,0,0.02448
2003/9/4 2:45,0.10944,0,0.04176,0.03312,0.54,0.1296,0.03312,0,0.01872
2003/9/4 3:00,0.108,0,0.0432,0.03312,0.43632,0.1296,0,0,0.03888
2003/9/4 3:15,0.108,0,0.0432,0.02736,0.56304,0.1296,0.03456,0,0.06624
2003/9/4 3:30,0.108,0,0.0432,0.0288,0.53712,0.1296,0,0,0.0648
2003/9/4 3:45,0.108,0,0.04176,0.02592,0.5184,0.1296,0,0,0.0648
2003/9/4 4:00,0.108,0,0.04464,0.03024,0.50976,0.1296,0.03312,0,0.05904
2003/9/4 4:15,0.108,0,0.0432,0.0216,0.4968,0.1296,0,0,0.0648
2003/9/4 4:30,0.10944,0,0.0432,0.0288,0.48528,0.1296,0.03456,0,0.06048
2003/9/4 4:45,0.108,0,0.0432,0.036,0.47376,0.1296,0,0,0.0648
2003/9/4 5:00,0.108,0,0.0432,0.03168,0.47232,0.1296,0,0,0.0648
2003/9/4 5:15,0.10368,0,0.08208,1.1304,0.46944,0.1296,0.03744,0,0.12816
2003/9/4 5:30,0.108,0,0.0576,0.5616,0.46368,0.1296,0,0,0.0648
2003/9/4 5:45,0.10944,0,0.04752,0.16992,0.468,0.1296,0.03456,0,0.06192
2003/9/4 6:00,0.108,0,0.30528,0.07632,0.45792,0.1296,0.01008,0,0.05328
2003/9/4 6:15,0.108,0,0.68256,0.5184,0.47808,0.1296,0.58176,0,-0.13248
2003/9/4 6:30,0.25776,0,0.62208,0.3312,0.48672,0.1296,0.91008,0,-0.14112
2003/9/4 6:45,0.28224,0,0.45504,0.63792,0.48096,0.14112,0.07344,0,0.02592
2003/9/4 7:00,0.2664,0,0.47232,0.80928,0.48096,0.13536,0.036,0,0.06336
2003/9/4 7:15,0.2808,0,0.8856,0.02736,0.47664,0.12816,0,0,-0.00144
2003/9/4 7:30,0.2808,0,0.65952,0.02304,0.46656,0.11952,0,0,0.01872
2003/9/4 7:45,0.21168,0,0.8352,0.28224,0.47088,0.108,0.03744,0,-0.04896
2003/9/4 8:00,0.108,0,0.58176,0.35712,0.27648,0.108,0,0,-0.04464
2003/9/4 8:15,0.1008,0,0.25632,0.1944,0.00432,0.108,0.03024,0,0.0576
2003/9/4 8:30,0.108,0,0.04464,0.0288,0.43488,0.108,0,0,0.06912
2003/9/4 8:45,0.108,0,0.04752,0.03024,0.46944,0.108,0.03168,0,0.0504
2003/9/4 9:00,0.108,0,0.04464,0.02592,0.46656,0.108,0,0,0.0648
2003/9/4 9:15,0.10944,0,0.0432,0.02448,0.46656,0.108,0.03456,0,0.06048
2003/9/4 9:30,0.108,0,0.04464,0.0216,0.00144,0.108,0,0,0.108
2003/9/4 9:45,0.108,0,0.04608,0.0288,0.2448,0.108,0,0,0.09504
2003/9/4 10:00,0.108,0,0.04752,0.03168,0.47952,0.10656,0.03312,0,0.06048
2003/9/4 10:15,0.108,0,0.04608,0.0288,0.47088,0.108,0,0,0.0648
2003/9/4 10:30,0.10656,0,0.04464,0.02736,0.46944,0.108,0.03744,0,0.06048
2003/9/4 10:45,0.108,0,0.0432,0.02304,0.1872,0.108,0,0,0.09072
2003/9/4 11:00,0.108,0,0.04608,0.0216,0.0576,0.108,0.036,0,0.09792
2003/9/4 11:15,0.108,0,0.04464,0.03312,0.48096,0.108,0,0,0.0648
2003/9/4 11:30,0.108,0,0.04608,0.0288,0.47088,0.108,0,0,0.0648
2003/9/4 11:45,0.10656,0,0.04464,0.02592,0.468,0.11088,0.03744,0,0.06048
2003/9/4 12:00,0.108,0,0.04608,0.03168,0.46368,0.11376,0,0,0.0648
2003/9/4 12:15,0.108,0,0.0432,0.02304,0.11088,0.108,0,0,0.09936
2003/9/4 12:30,0.10368,0,0.04896,0.02304,0.15408,0.108,0.03312,0,0.0792
2003/9/4 12:45,0.108,0,0.04608,0.03456,0.47808,0.108,0,0,0.0648
2003/9/4 13:00,0.10656,0,0.04464,0.02736,0.47088,0.108,0.036,0,0.06048
2003/9/4 13:15,0.108,0,0.04464,0.0288,0.47232,0.108,0,0,0.0648
2003/9/4 13:30,0.108,0,0.0504,0.0288,0.32976,0.108,0,0,0.0792